Flag for Germany Weather past 2 weeks in Schönebeck, Saxony-Anhalt, Germany

Now
44 °F

Overcast.


Feels Like: 44 °F
Forecast: 35 / 57 °F
Wind: 2 mph from North

Location: Magdeburg

Current Time: Apr 28, 2015 at 6:27:17 AM

Latest Report: Apr 28, 2015 at 4:00 AM


Visibility: 25 mi

Pressure: 29.80 "Hg

Humidity: 84%

Dew point: 39 °F

Location of SchönebeckLocation

Historic Weather in Schönebeck — Graph

°F

Schönebeck temperature yesterday

Maximum temperature yesterday: 53 °F (at 12:00 AM)
Minimum temperature yesterday: 46 °F (at 10:00 PM)
Average temperature yesterday: 50 °F

Past Weeks' High & Low Weather Summary

 TemperatureHumidityPressure
High74 °F (Apr 15, 4:00 PM)97% (Apr 26, 6:00 AM)30.42 "Hg (Apr 26, 6:00 AM)
Low32 °F (Apr 18, 7:00 AM)23% (Apr 21, 2:00 PM)29.59 "Hg (Apr 27, 7:00 AM)
Average52 °F64%30.08 "Hg
* Reported Apr 13 4:00 AM — Apr 28 4:00 AM, Schönebeck, Weather by CustomWeather, © 2015

Note: Actual official high and low records may vary slightly from our data, if they occured in-between our weather recording intervals... More about our weather records

Advertising

Schönebeck weather history for previous 24 hours

 ConditionsComfort  
Time TempWeatherWind HumidityBarometerVisibility
4:00 AM
Tue, Apr 28
44 °FOvercast.2 mph84%29.80 "Hg25 mi
3:00 AM43 °FOvercast.1 mph84%29.80 "Hg28 mi
2:00 AM43 °FOvercast.2 mph80%29.79 "Hg34 mi
1:00 AM44 °FLight rain. Overcast.2 mph83%29.80 "Hg19 mi
12:00 AM45 °FLight freezing rain. Overcast.2 mph80%29.80 "Hg9 mi
10:00 PM
Mon, Apr 27
46 °FLight rain. Overcast.3 mph88%29.77 "Hg5 mi
9:00 PM47 °FLight rain. Overcast.5 mph82%29.76 "Hg12 mi
8:00 PM48 °FOvercast.5 mph78%29.74 "Hg28 mi
7:00 PM49 °FOvercast.5 mph81%29.72 "Hg28 mi
6:00 PM48 °FDrizzle. Overcast.5 mph85%29.73 "Hg22 mi
4:00 PM49 °FLow clouds.5 mph87%29.72 "Hg16 mi
3:00 PM49 °FDrizzle. Low clouds.5 mph93%29.71 "Hg6 mi
2:00 PM50 °FLow clouds.5 mph92%29.69 "Hg9 mi
1:00 PM50 °FDrizzle. Low clouds.3 mph95%29.67 "Hg4 mi
12:00 PM50 °FDrizzle. Low clouds.3 mph95%29.66 "Hg3 mi
10:00 AM51 °FLight rain. Low clouds.2 mph95%29.61 "Hg7 mi
9:00 AM51 °FLow clouds.3 mph97%29.60 "Hg10 mi
8:00 AM51 °FLow clouds.2 mph97%29.60 "Hg6 mi
7:00 AM51 °FLight rain. Low clouds.3 mph97%29.59 "Hg2 mi
6:00 AM51 °FLight rain. Low clouds.2 mph97%29.61 "Hg2 mi
Weather by CustomWeather, © 2015

See weather overviewHow to use our weather pages